Regional Weather Roundup
Issued by NWS

Home | Current Version | Previous Version | Text Only | Print | Product List | Glossary On
Versions: 1 2 3 4 5 6 7 8 9 10 11 12 13 14 15 16 17 18 19 20 21 22 23 24 25 26 27 28 29 30 31 32 33 34 35 36 37 38 39 40 41 42 43 44 45 46 47 48 49 50
425
ASUS43 KMKX 052021
RWRWI

WISCONSIN REGIONAL WEATHER ROUNDUP
NATIONAL WEATHER SERVICE MILWAUKEE/SULLIVAN WI
200 PM CST MON DEC 05 2016

NOTE: "FAIR" INDICATES FEW OR NO CLOUDS BELOW 12,000 FEET WITH NO
SIGNIFICANT WEATHER AND/OR OBSTRUCTIONS TO VISIBILITY.

WIZ001-002-006>008-014>016-023>028-052100-
NORTHWEST WISCONSIN

CITY           SKY/WX    TMP DP  RH WIND       PRES   REMARKS
SUPERIOR ARPT  MOSUNNY   38  30  74 E7        29.75F WCI  32
ASHLAND        SUNNY     41  30  65 E9G16     29.78F
HAYWARD        CLOUDY    33  28  81 SE8       29.76S WCI  26
SIREN          CLOUDY    34  29  83 SE9G17    29.73S WCI  26
CUMBERLAND     CLOUDY    32  30  93 SE10      29.74F FOG     WCI  24
RICE LAKE      CLOUDY    32  32 100 SE13G18   29.78R FOG     WCI  22
CHETEK         CLOUDY    32  32 100 SE9       29.78F FOG     WCI  24
LADYSMITH      CLOUDY    33  32  94 SE7       29.79F WCI  27
EAU CLAIRE     CLOUDY    35  32  88 SE6       29.79R WCI  30
MENOMONIE      CLOUDY    35  35 100 E7        29.78S FOG     WCI  29
NEW RICHMOND   CLOUDY    34  33  94 SE12      29.72F WCI  26
OSCEOLA        RAIN      35  35 100 SE14G21   29.74R WCI  25
$$

WIZ003>005-009-010-017-018-052100-
NORTH CENTRAL WISCONSIN

CITY           SKY/WX    TMP DP  RH WIND       PRES   REMARKS
MANITOWISH WTR SUNNY     35  30  84 SE7       29.79F WCI  29
ARBOR VITAE    SUNNY     38  31  76 SE3       29.79F
WOODRUFF       SUNNY     38  31  76 SE3       29.79F
RHINELANDER    SUNNY     38  30  73 S7        29.81F WCI  33
EAGLE RIVER    SUNNY     37  29  73 CALM      29.80F
LAND O LAKES   SUNNY     38  30  71 S5        29.82S WCI  35
PHILLIPS       MOSUNNY   36  30  80 SE5       29.77F WCI  32
TOMAHAWK       SUNNY     34  29  81 CALM      29.82S
MEDFORD        CLOUDY    32  30  93 SE8       29.79F WCI  24
MERRILL        PTSUNNY   34  31  88 SE5       29.83F WCI  30
$$

WIZ029-030-035-036-043>047-052100-
CENTRAL WISCONSIN

CITY           SKY/WX    TMP DP  RH WIND       PRES   REMARKS
WAUSAU         CLOUDY    33  30  88 SE10      29.82F WCI  25
MOSINEE        CLOUDY    32  32 100 SE7       29.84F FOG     WCI  26
MARSHFIELD     CLOUDY    33  31  92 S13       29.82S FOG     WCI  24
STEVENS POINT  CLOUDY    32  32 100 SE8       29.86F FOG     WCI  25
WAUPACA        CLOUDY    36  33  88 SE8       29.89F FOG     WCI  29
WAUTOMA        CLOUDY    35  32  88 S9        29.89F FOG     WCI  28
WISC RAPIDS    CLOUDY    34  33  96 S7        29.87S FOG     WCI  28
CAMP DOUGLAS   CLOUDY    36  32  87 SE9       29.86R WCI  29
$$

WIZ011>013-019>022-031-037>040-048>050-052100-
NORTHEAST WISCONSIN

CITY           SKY/WX    TMP DP  RH WIND       PRES   REMARKS
ANTIGO         SUNNY     34  30  86 SE9       29.84F WCI  27
SHAWANO        CLOUDY    36  31  83 SW5       29.91R WCI  32
OCONTO         PTSUNNY   35  30  82 S5        29.92R WCI  31
STURGEON BAY   MOSUNNY   37  31  78 S7        29.92F WCI  32
GREEN BAY      CLOUDY    36  33  89 S10       29.93R WCI  28
MANITOWOC      CLOUDY    35  31  85 SW9       29.96R WCI  28
APPLETON       CLOUDY    34  34 100 S12       29.90S FOG     WCI  25
CLINTONVILLE   CLOUDY    34  32  93 S8        29.89F WCI  27
OSHKOSH        CLOUDY    33  31  92 S16       29.91F FOG     WCI  23
$$

WIZ032>034-041-042-053>061-052100-
SOUTHWEST WISCONSIN

CITY           SKY/WX    TMP DP  RH WIND       PRES   REMARKS
LA CROSSE      CLOUDY    39  33  79 S15       29.84S WCI  31
SPARTA         PTSUNNY   37  33  85 S9        29.86R WCI  30
VIROQUA        CLOUDY    33  33  97 S12       29.85R WCI  25
BOSCOBEL       CLOUDY    36  31  82 VRB6      29.91R WCI  31
PRAIRIE DU CHI CLOUDY    36  31  85 SE5       29.89S WCI  32
PLATTEVILLE    CLOUDY    32  32 100 S12       29.91R WCI  23
$$

WIZ056-057-062-063-064-067-068-052100-
SOUTH CENTRAL WISCONSIN

CITY           SKY/WX    TMP DP  RH WIND       PRES   REMARKS
REEDSBURG      CLOUDY    34  33  94 S8        29.88F WCI  27
BARABOO/DELLS  CLOUDY    34  32  93 S9        29.89S WCI  26
LONE ROCK      CLOUDY    35  31  85 SE10      29.91S WCI  27
MINERAL POINT  CLOUDY    34  34 100 S14       29.90R FOG     WCI  24
MADISON        CLOUDY    32  30  92 S12       29.93S FOG     WCI  23
MIDDLETON      NOT AVBL
WATERTOWN      CLOUDY    32  32 100 S10       29.94S WCI  23
MONROE         FOG       32  32 100 S16G22    29.93S VSB 3/4 WCI  21
JANESVILLE     CLOUDY    34  34 100 S15       29.95F FOG     WCI  24
$$

WIZ051-052-058>065-066-070>072-052100-
SOUTHEAST WISCONSIN

CITY           SKY/WX    TMP DP  RH WIND       PRES   REMARKS
MILWAUKEE      CLOUDY    34  31  88 SW12      29.97S FOG     WCI  25
WAUKESHA       CLOUDY    30  28  93 S6        29.96F FOG     WCI  24
MILWAUKEE/TIMM CLOUDY    34  30  86 S7        29.97F FOG     WCI  28
RACINE         CLOUDY    33  31  92 S8        29.99S FOG     WCI  26
BURLINGTON     CLOUDY    32  31  96 S7        29.97S FOG     WCI  26
KENOSHA        CLOUDY    33  30  88 S10       29.97F FOG     WCI  25
FOND DU LAC    CLOUDY    33  30  88 S12       29.92F WCI  24
SHEBOYGAN      CLOUDY    34  31  88 S10       29.95R WCI  26
WEST BEND      CLOUDY    32  32 100 SW8       29.94F FOG     WCI  25
JUNEAU         CLOUDY    32  31  96 S15       29.94F FOG     WCI  21
$$

LSZ147-162-052100-
LAKE SUPERIOR

STATION/POSITION TIME  TEMP    WIND        PRES    WAVE
                       AIR SEA DIR/SP/G            HT/PER
                 (UTC) (F)     (DEG/KT/KT) (MB)    (FT/S)
DEVILS ISLAND    2000   36     330/  5/  6 1009.6F
PORT WING        2000   38      30/ 13/ 23 1007.8
SAXON HARBOR     1930   40      30/  4/  5 1009.1F
$$

LMZ867-665-643>646-052100-
LAKE MICHIGAN

STATION/POSITION TIME  TEMP    WIND        PRES    WAVE
                       AIR SEA DIR/SP/G            HT/PER
                 (UTC) (F)     (DEG/KT/KT) (MB)    (FT/S)
CHAMBERS ISLAND  1940   38     200/  7/ 14 1012.5F
NORTHPORT PIER   1940   42     260/  3/  9 1012.9F
SISTER BAY       1938   41     240/ 14/ 16   N/A
ALGOMA LAKESHORE 1921          200/  9/ 10   N/A
KEWAUNEE LAKESHO 2000   36     200/ 11/ 13 1013.4
SHEBOYGAN LAKESH 2000   35     210/ 12/ 13 1014.5R
PORT WASHINGTON  1940   35     230/  6/ 12 1015.9S
MILWAUKEE LAKESH 2000   33     190/ 11/ 12   N/A
KENOSHA   LAKESH 2000   33     210/  6/ 11 1015.6
$$

TC  - TEMPERATURE IN CELSIUS
VSB - VISIBILITY IN STATUTE MILES
WCI - WIND CHILL INDEX
HX  - HEAT INDEX





USA.gov is the U.S. government's official web portal to all federal, state and local government web resources and services.